{"data":{"norad_id":45137,"epoch":"2026-09-20T02:37:06.222720Z","epoch_age_seconds":51938,"freshness":"FRESH","line1":"1 45137U 20008G   26263.10909980 -.00000509  00000+0 -14945-2 0  9995","line2":"2 45137  87.8913  17.3698 0001729  99.5130 260.6193 13.10370835320674","mean_motion":13.10370835,"eccentricity":0.0001729,"inclination_deg":87.8913,"raan_deg":17.3698,"arg_perigee_deg":99.513,"mean_anomaly_deg":260.6193,"bstar":-0.0014945,"rev_number":32067,"period_min":109.89255572069,"perigee_km":1220.4107981019,"apogee_km":1223.0388303173,"semimajor_km":7599.8618142096,"source":"CELESTRAK","updated_at":"2026-09-20T09:00:44.545913Z"}}